User: anonymous   Login
Location: Unspecified
(0.0000°N, 0.0000°E)
Time: 22:26:01
(UTC+00:00)
Language:

STARLINK-30422 - Orbit

View from above orbital plane
View from above orbital plane
View from above satellite
View from above satellite

Ground track
Ground track

The orbit is defined by the following mean orbital elements,

1 57826U          26145.49277779 +.00000000 +00000-0 +19580-3 0 00007
2 57826  43.0037 160.4945 0001394 292.4924  67.5780 15.27573849    09
Epoch (UTC): 25 May 2026 11:49:36
Eccentricity: 0.0001394
inclination: 43.0037°
perigee height: 482 km
apogee height: 484 km
right ascension of ascending node: 160.4945°
argument of perigee: 292.4924°
revolutions per day: 15.27573849
mean anomaly at epoch: 67.5780°

The dashed part of the orbit path shows where the satellite is in the earth's shadow,  

DLR